Weather History for O'Neill, NE

Change the Weather History Date:

Saturday, October 18, 2014

  Actual Average Record
Temperature  
Mean Temperature 44 °F -  
Max Temperature 59 °F 59 °F 86 °F (2003)
Min Temperature 28 °F 35 °F 14 °F (1989)
Degree Days  
Heating Degree Days 22    
Moisture  
Dew Point 37 °F    
Average Humidity 82    
Maximum Humidity 100    
Minimum Humidity 47    
Precipitation  
Precipitation 0.00 in - - ()
Sea Level Pressure  
Sea Level Pressure 30.18 in    
Wind  
Wind Speed 6 mph (South)    
Max Wind Speed 14 mph    
Max Gust Speed 16 mph    
Visibility 8 miles    
Events Fog    
Averages and records for this station are not official NWS values.
T = Trace of Precipitation, MM = Missing Value Source: NWS Daily Summary

Daily Weather History Graph

Daily Weather History Graph

Search for Another Location

Airport:

Trip Planner

Search our weather history database for the weather conditions in past years. The results will help you decide how hot, cold, wet, or windy it might be!

Date:

Astronomy

Oct. 18, 2014 Rise Set
Actual Time 7:51 AM CDT 6:47 PM CDT
Civil Twilight 7:22 AM CDT 7:16 PM CDT
Nautical Twilight 6:50 AM CDT 7:48 PM CDT
Astronomical Twilight 6:17 AM CDT 8:21 PM CDT
Moon 2:45 AM CDT (10/18) 4:14 PM CDT (10/18)
Length of Visible Light 11h 53m
Length of Day
10h 56m
Waning Crescent, 24% of the Moon is Illuminated
Oct 18
Waning Crescent
Oct 23
New
Oct 30
First Quarter
Nov 6
Full
Nov 14
Last Quarter

Hourly Weather History & Observations

Time (CDT) Temp. Windchill Dew Point Humidity Pressure Visibility Wind Dir Wind Speed Gust Speed Precip Events Conditions
12:15 AM 37.0 °F 32.4 °F 35.6 °F 95% 30.22 in 10.0 mi NW 5.8 mph - N/A   Clear
12:35 AM 37.6 °F 33.1 °F 36.0 °F 94% 30.22 in 10.0 mi NNW 5.8 mph - N/A   Clear
12:55 AM 36.5 °F 31.0 °F 35.2 °F 95% 30.22 in 10.0 mi NNW 6.9 mph - N/A   Clear
1:15 AM 36.5 °F 31.0 °F 35.4 °F 96% 30.22 in 10.0 mi NNW 6.9 mph - N/A   Clear
1:35 AM 37.0 °F 31.0 °F 36.1 °F 97% 30.22 in 10.0 mi North 8.1 mph - N/A   Clear
1:55 AM 36.3 °F 30.8 °F 35.1 °F 95% 30.22 in 10.0 mi North 6.9 mph - N/A   Clear
2:15 AM 35.1 °F 31.0 °F 34.3 °F 97% 30.22 in 10.0 mi NNW 4.6 mph - N/A   Clear
2:35 AM 34.9 °F 30.8 °F 34.3 °F 98% 30.22 in 10.0 mi NW 4.6 mph - N/A   Clear
2:55 AM 34.0 °F 28.8 °F 33.8 °F 99% 30.22 in 10.0 mi NW 5.8 mph - N/A   Clear
3:15 AM 34.7 °F 30.6 °F 34.3 °F 99% 30.22 in 10.0 mi NW 4.6 mph - N/A   Clear
3:35 AM 35.2 °F - 34.9 °F 99% 30.22 in 10.0 mi Calm Calm - N/A   Clear
3:55 AM 33.6 °F - 33.3 °F 99% 30.22 in 7.0 mi Calm Calm - N/A   Clear
4:15 AM 33.1 °F - 33.1 °F 100% 30.23 in 7.0 mi Calm Calm - N/A   Clear
4:35 AM 32.7 °F 29.6 °F 32.7 °F 100% 30.23 in 7.0 mi NW 3.5 mph - N/A   Clear
4:55 AM 32.9 °F - 32.9 °F 100% 30.23 in 7.0 mi Calm Calm - N/A   Clear
5:15 AM 32.9 °F 28.5 °F 32.9 °F 100% 30.23 in 5.0 mi WNW 4.6 mph - N/A   Clear
5:35 AM 32.2 °F 28.9 °F 32.2 °F 100% 30.24 in 5.0 mi NW 3.5 mph - N/A   Clear
5:55 AM 32.4 °F 27.9 °F 32.4 °F 100% 30.24 in 7.0 mi NW 4.6 mph - N/A   Clear
6:15 AM 33.3 °F 30.2 °F 33.3 °F 100% 30.24 in 5.0 mi WNW 3.5 mph - N/A   Clear
6:35 AM 29.3 °F 24.3 °F 29.3 °F 100% 30.24 in 4.0 mi WSW 4.6 mph - N/A   Clear
6:55 AM 31.1 °F 26.4 °F 31.1 °F 100% 30.25 in 3.0 mi West 4.6 mph - N/A   Clear
7:15 AM 30.9 °F - 30.9 °F 100% 30.24 in 3.0 mi Calm Calm - N/A   Clear
7:35 AM 31.1 °F - 31.1 °F 100% 30.24 in 4.0 mi Calm Calm - N/A   Clear
7:55 AM 30.9 °F - 30.9 °F 100% 30.24 in 2.0 mi Calm Calm - N/A   Clear
8:15 AM 28.9 °F - 28.9 °F 100% 30.25 in 0.2 mi Calm Calm - N/A Fog Light Freezing Fog
8:35 AM 29.3 °F - 29.3 °F 100% 30.25 in 0.2 mi Calm Calm - N/A Fog Light Freezing Fog
8:55 AM 30.4 °F - 30.4 °F 100% 30.26 in 0.2 mi Calm Calm - N/A Fog Light Freezing Fog
9:15 AM 32.0 °F - 32.0 °F 100% 30.26 in 0.2 mi Calm Calm - N/A Fog Fog
9:35 AM 34.3 °F - 34.3 °F 100% 30.26 in 5.0 mi Calm Calm - N/A   Overcast
9:55 AM 36.1 °F - 36.1 °F 100% 30.26 in 5.0 mi Calm Calm - N/A   Overcast
10:15 AM 37.9 °F 35.5 °F 37.9 °F 100% 30.27 in 5.0 mi SSW 3.5 mph - N/A   Overcast
10:35 AM 39.2 °F - 39.2 °F 100% 30.27 in 7.0 mi Calm Calm - N/A   Overcast
10:55 AM 40.8 °F 37.8 °F 40.8 °F 100% 30.26 in 10.0 mi SE 4.6 mph - N/A   Overcast
11:15 AM 41.2 °F 38.2 °F 40.6 °F 98% 30.27 in 10.0 mi South 4.6 mph - N/A   Overcast
11:35 AM 41.9 °F 39.0 °F 40.8 °F 96% 30.26 in 10.0 mi South 4.6 mph - N/A   Overcast
11:55 AM 42.8 °F 39.3 °F 41.0 °F 93% 30.26 in 10.0 mi South 5.8 mph - N/A   Overcast
12:15 PM 43.3 °F 39.9 °F 41.0 °F 91% 30.25 in 10.0 mi SSW 5.8 mph - N/A   Overcast
12:35 PM 44.8 °F 41.6 °F 41.2 °F 87% 30.24 in 10.0 mi SE 5.8 mph - N/A   Overcast
12:55 PM 47.1 °F - 42.6 °F 84% 30.23 in 10.0 mi SSE 9.2 mph - N/A   Scattered Clouds
1:15 PM 48.9 °F - 42.8 °F 79% 30.22 in 10.0 mi South 9.2 mph - N/A   Clear
1:35 PM 50.7 °F - 42.3 °F 73% 30.21 in 10.0 mi South 8.1 mph - N/A   Clear
1:55 PM 52.3 °F - 42.3 °F 69% 30.19 in 10.0 mi South 8.1 mph - N/A   Clear
2:15 PM 53.6 °F - 42.3 °F 65% 30.18 in 10.0 mi SSE 8.1 mph - N/A   Clear
2:35 PM 55.6 °F - 42.4 °F 61% 30.17 in 10.0 mi South 9.2 mph - N/A   Clear
2:55 PM 57.0 °F - 41.2 °F 55% 30.16 in 10.0 mi South 10.4 mph - N/A   Clear
3:15 PM 58.1 °F - 41.0 °F 53% 30.15 in 10.0 mi SSE 10.4 mph - N/A   Clear
3:35 PM 58.8 °F - 39.6 °F 49% 30.15 in 10.0 mi South 13.8 mph - N/A   Clear
3:55 PM 59.5 °F - 40.5 °F 49% 30.14 in 10.0 mi South 9.2 mph - N/A   Clear
4:15 PM 59.7 °F - 40.3 °F 49% 30.13 in 10.0 mi South 12.7 mph 16.1 mph N/A   Clear
4:35 PM 59.5 °F - 39.6 °F 48% 30.12 in 10.0 mi SSE 11.5 mph - N/A   Clear
4:55 PM 59.7 °F - 39.9 °F 48% 30.12 in 10.0 mi South 10.4 mph - N/A   Clear
5:15 PM 59.7 °F - 39.6 °F 47% 30.11 in 10.0 mi SSE 12.7 mph - N/A   Clear
5:35 PM 59.2 °F - 39.6 °F 48% 30.10 in 10.0 mi SSE 11.5 mph - N/A   Clear
5:55 PM 58.6 °F - 39.7 °F 49% 30.10 in 10.0 mi SSE 10.4 mph - N/A   Clear
6:15 PM 57.4 °F - 40.1 °F 53% 30.09 in 10.0 mi SSE 9.2 mph - N/A   Clear
6:35 PM 56.3 °F - 39.9 °F 54% 30.09 in 10.0 mi SSE 10.4 mph - N/A   Clear
6:55 PM 54.9 °F - 39.6 °F 56% 30.09 in 10.0 mi SSE 9.2 mph - N/A   Clear
7:15 PM 53.8 °F - 39.2 °F 58% 30.08 in 10.0 mi SSE 9.2 mph - N/A   Clear
7:35 PM 52.7 °F - 39.2 °F 60% 30.08 in 10.0 mi SSE 9.2 mph - N/A   Clear
7:55 PM 51.8 °F - 39.2 °F 62% 30.08 in 10.0 mi SSE 10.4 mph - N/A   Clear
8:15 PM 50.4 °F - 39.4 °F 66% 30.08 in 10.0 mi SSE 12.7 mph - N/A   Clear
8:35 PM 49.6 °F - 39.6 °F 68% 30.07 in 10.0 mi SSE 12.7 mph - N/A   Clear
8:55 PM 48.6 °F - 39.7 °F 72% 30.08 in 10.0 mi SSE 10.4 mph - N/A   Clear
9:15 PM 48.2 °F - 39.9 °F 73% 30.08 in 10.0 mi South 11.5 mph - N/A   Clear
9:35 PM 47.3 °F - 39.7 °F 75% 30.08 in 10.0 mi South 9.2 mph - N/A   Clear
9:55 PM 46.8 °F - 39.9 °F 77% 30.07 in 10.0 mi SSE 10.4 mph - N/A   Clear
10:15 PM 46.4 °F 41.5 °F 39.9 °F 78% 30.07 in 10.0 mi South 10.4 mph - N/A   Clear
10:35 PM 46.4 °F 41.1 °F 39.9 °F 78% 30.06 in 10.0 mi South 11.5 mph - N/A   Clear
10:55 PM 46.0 °F 41.4 °F 39.7 °F 79% 30.06 in 10.0 mi South 9.2 mph - N/A   Clear
11:15 PM 45.5 °F 40.3 °F 39.6 °F 80% 30.06 in 10.0 mi South 10.4 mph - N/A   Clear
11:35 PM 46.0 °F 40.6 °F 39.7 °F 79% 30.05 in 10.0 mi South 11.5 mph - N/A   Clear
11:55 PM 46.4 °F 41.1 °F 39.9 °F 78% 30.05 in 10.0 mi South 11.5 mph - N/A   Clear